Location: G�migny
(47.9646°N, 1.6950°E)
Time: 22:07:17
(UTC+00:00)

STARLINK-54 - Visible Passes

Search period start: 27 January 2020 00:00
Search period end: 06 February 2020 00:00
Orbit: 528 x 530 km, 53.0° (Epoch: 27 January)

Date Brightness Start Highest point End Pass type
(mag) Time Alt. Az. Time Alt. Az. Time Alt. Az.
27 Jan 5.3 04:35:58 29° NE 04:35:58 29° NE 04:38:04 10° ENE visible
27 Jan 4.3 06:11:12 20° WNW 06:13:34 39° N 06:17:23 10° ENE visible
28 Jan 5.8 04:24:27 23° NE 04:24:27 23° NE 04:26:03 10° ENE visible
28 Jan 4.3 05:59:40 24° NW 06:01:36 39° N 06:05:25 10° ENE visible
29 Jan 6.2 04:12:55 18° ENE 04:12:55 18° ENE 04:14:04 10° ENE visible
29 Jan 4.3 05:48:08 28° NW 05:49:40 39° N 05:53:29 10° ENE visible
30 Jan 6.5 04:01:23 15° ENE 04:01:23 15° ENE 04:02:06 10° ENE visible
30 Jan 4.4 05:36:37 32° NW 05:37:45 40° N 05:41:34 10° ENE visible
31 Jan 6.8 03:49:51 12° ENE 03:49:51 12° ENE 03:50:09 10° ENE visible
31 Jan 4.3 05:25:05 36° NNW 05:25:51 40° N 05:29:41 10° ENE visible
01 Feb 4.3 05:13:36 40° N 05:13:59 41° N 05:17:50 10° E visible
02 Feb 4.3 05:02:08 43° N 05:02:08 43° N 05:06:00 10° E visible
02 Feb 3.6 06:37:28 10° WNW 06:41:31 79° SSW 06:45:32 10° ESE visible
03 Feb 4.4 04:50:43 43° NNE 04:50:43 43° NNE 04:54:11 10° E visible
03 Feb 3.6 06:25:58 12° WNW 06:29:37 69° SSW 06:33:37 10° SE visible
04 Feb 4.7 04:39:21 40° NE 04:39:21 40° NE 04:42:23 10° E visible
04 Feb 3.7 06:14:36 16° WNW 06:17:44 60° SSW 06:21:42 10° SE visible
05 Feb 5.1 04:28:03 34° ENE 04:28:03 34° ENE 04:30:37 10° E visible
05 Feb 3.9 06:03:18 20° WNW 06:05:52 51° SW 06:09:46 10° SE visible
